Weather History for Miles City, MT

Change the Weather History Date:

Wednesday, November 20, 2013

  Actual Average Record
Temperature  
Mean Temperature 13 °F 30 °F  
Max Temperature 24 °F 41 °F 65 °F (2002)
Min Temperature 1 °F 19 °F -18 °F (1985)
Degree Days  
Heating Degree Days 52 35  
Month to date heating degree days 599 606  
Since 1 July heating degree days 1304 1417  
Cooling Degree Days 0 0  
Month to date cooling degree days 0 0  
Year to date cooling degree days 877 730  
Moisture  
Dew Point 8 °F    
Average Humidity 76    
Maximum Humidity 84    
Minimum Humidity 67    
Precipitation  
Precipitation 0.02 in 0.01 in 0.66 in (1977)
Month to date precipitation 0.10 0.29  
Year to date precipitation 16.50 12.05  
Sea Level Pressure  
Sea Level Pressure 30.14 in    
Wind  
Wind Speed 13 mph (NNW)    
Max Wind Speed 24 mph    
Max Gust Speed 29 mph    
Visibility 7 miles    
Events Fog , Snow    
T = Trace of Precipitation, MM = Missing Value Source: NWS Daily Summary

Daily Weather History Graph

Daily Weather History Graph

Search for Another Location

Airport:

Trip Planner

Search our weather history database for the weather conditions in past years. The results will help you decide how hot, cold, wet, or windy it might be!

Date:

Astronomy

Nov. 20, 2013 Rise Set
Actual Time 7:12 AM MST 4:25 PM MST
Civil Twilight 6:39 AM MST 4:58 PM MST
Nautical Twilight 6:02 AM MST 5:35 PM MST
Astronomical Twilight 5:26 AM MST 6:11 PM MST
Moon 7:10 PM MST (11/20) 9:40 AM MST (11/20)
Length of Visible Light 10h 19m
Length of Day
9h 12m
Waning Gibbous, 91% of the Moon is Illuminated
Nov 20
Waning Gibbous
Nov 25
Last Quarter
Dec 2
New
Dec 9
First Quarter
Dec 17
Full

Hourly Weather History & Observations

Time (MST) Temp. Windchill Dew Point Humidity Pressure Visibility Wind Dir Wind Speed Gust Speed Precip Events Conditions
12:53 AM 23.0 °F 11.1 °F 17.1 °F 78% 29.86 in 10.0 mi North 12.7 mph - N/A   Clear
1:38 AM 21.9 °F 9.8 °F 17.1 °F 82% 29.83 in 10.0 mi North 12.7 mph - N/A   Mostly Cloudy
1:53 AM 21.9 °F 9.8 °F 17.1 °F 82% 29.88 in 10.0 mi North 12.7 mph - N/A   Overcast
2:19 AM 21.9 °F 9.8 °F 17.1 °F 82% 29.85 in 10.0 mi North 12.7 mph - N/A   Mostly Cloudy
2:49 AM 21.2 °F 8.9 °F 15.8 °F 80% 29.86 in 10.0 mi NNW 12.7 mph - N/A   Overcast
2:53 AM 21.0 °F 8.6 °F 16.0 °F 81% 29.90 in 10.0 mi North 12.7 mph - N/A   Overcast
3:26 AM 19.9 °F 6.2 °F 14.0 °F 78% 29.86 in 10.0 mi North 15.0 mph - N/A   Overcast
3:53 AM 19.9 °F 7.9 °F 14.0 °F 78% 29.93 in 10.0 mi North 11.5 mph - N/A   Overcast
4:50 AM 19.4 °F 6.6 °F 12.2 °F 74% 29.89 in 10.0 mi NNW 12.7 mph - N/A   Overcast
4:53 AM 19.9 °F 7.3 °F 12.9 °F 74% 29.96 in 10.0 mi NNW 12.7 mph - N/A   Overcast
5:53 AM 19.0 °F 6.1 °F 10.9 °F 71% 29.97 in 10.0 mi North 12.7 mph - N/A   Overcast
6:53 AM 19.0 °F 6.8 °F 10.9 °F 71% 29.99 in 10.0 mi NNE 11.5 mph - N/A   Overcast
7:39 AM 18.0 °F 6.9 °F 10.9 °F 74% 29.92 in 10.0 mi North 9.2 mph - N/A   Overcast
7:53 AM 19.0 °F 9.0 °F 10.9 °F 71% 30.00 in 10.0 mi NNE 8.1 mph - N/A   Overcast
8:14 AM 19.0 °F 7.5 °F 10.0 °F 68% 29.93 in 10.0 mi NNE 10.4 mph - N/A   Overcast
8:53 AM 19.0 °F 9.0 °F 10.9 °F 71% 30.01 in 10.0 mi NE 8.1 mph - N/A   Mostly Cloudy
9:00 AM 19.0 °F 9.0 °F 10.0 °F 68% 29.94 in 10.0 mi NNE 8.1 mph - N/A   Mostly Cloudy
9:33 AM 19.0 °F 7.5 °F 10.0 °F 68% 29.95 in 10.0 mi NNE 10.4 mph - N/A   Overcast
9:53 AM 19.0 °F 7.5 °F 10.0 °F 68% 30.06 in 10.0 mi NNE 10.4 mph - N/A   Overcast
10:25 AM 19.0 °F 6.8 °F 10.9 °F 71% 29.99 in 10.0 mi North 11.5 mph - N/A   Overcast
10:53 AM 18.0 °F 2.2 °F 9.0 °F 68% 30.10 in 9.0 mi NNW 18.4 mph - 0.00 in Snow Light Snow
11:53 AM 17.1 °F -0.3 °F 9.0 °F 71% 30.13 in 4.0 mi North 21.9 mph 27.6 mph 0.00 in Snow Light Snow
12:01 PM 16.0 °F -0.9 °F 8.1 °F 71% 30.03 in 7.0 mi North 19.6 mph - 0.00 in Snow Light Snow
12:53 PM 15.1 °F -2.9 °F 6.1 °F 68% 30.17 in 10.0 mi North 21.9 mph 28.8 mph 0.00 in   Overcast
1:12 PM 15.1 °F -2.0 °F 8.1 °F 74% 30.07 in 1.8 mi NNW 19.6 mph - 0.00 in Snow Light Snow
1:21 PM 14.0 °F -4.3 °F 9.0 °F 80% 30.08 in 0.5 mi NNW 21.9 mph - 0.00 in Snow Snow
1:33 PM 12.9 °F -4.4 °F 10.0 °F 88% 30.09 in 0.5 mi NNW 18.4 mph - 0.00 in Fog , Snow Snow
1:43 PM 12.0 °F -6.5 °F 9.0 °F 88% 30.11 in 0.2 mi NNW 20.7 mph - 0.00 in Fog , Snow Snow
1:50 PM 12.2 °F -3.7 °F 8.6 °F 85% 30.11 in 0.2 mi NNW 15.0 mph - 0.00 in Fog , Snow Snow
1:53 PM 12.0 °F -5.6 °F 9.0 °F 88% 30.24 in 0.2 mi NNW 18.4 mph - 0.00 in Fog , Snow Snow
2:46 PM 12.0 °F -5.1 °F 8.1 °F 84% 30.15 in 0.5 mi NW 17.3 mph - 0.02 in Fog , Snow Snow
2:53 PM 12.0 °F -4.0 °F 8.1 °F 84% 30.29 in 0.5 mi NW 15.0 mph - 0.02 in Fog , Snow Snow
3:15 PM 12.0 °F -2.7 °F 8.1 °F 84% 30.18 in 1.0 mi NW 12.7 mph - 0.00 in Snow Light Snow
3:23 PM 12.0 °F -6.5 °F 6.1 °F 77% 30.19 in 3.0 mi NW 20.7 mph - 0.00 in Snow Light Snow
3:31 PM 10.9 °F -7.0 °F 6.1 °F 81% 30.20 in 2.0 mi NW 18.4 mph - 0.00 in Snow Light Snow
3:50 PM 10.4 °F -7.2 °F 6.8 °F 85% 30.21 in 1.2 mi NNW 17.3 mph - 0.00 in Snow Light Snow
3:53 PM 10.9 °F -7.0 °F 6.1 °F 81% 30.35 in 1.0 mi NNW 18.4 mph - 0.00 in Snow Light Snow
4:00 PM 10.9 °F -5.4 °F 7.0 °F 84% 30.22 in 0.8 mi NNW 15.0 mph - 0.00 in Snow Light Snow
4:22 PM 10.9 °F -5.9 °F 6.1 °F 81% 30.24 in 1.5 mi NW 16.1 mph - 0.00 in Snow Light Snow
4:31 PM 10.9 °F -4.1 °F 6.1 °F 81% 30.25 in 3.0 mi NW 12.7 mph 23.0 mph 0.00 in Snow Light Snow
4:53 PM 10.0 °F -8.1 °F 3.9 °F 76% 30.41 in 10.0 mi NNW 18.4 mph - 0.00 in   Overcast
5:27 PM 10.0 °F -8.1 °F 3.9 °F 76% 30.29 in 10.0 mi NNW 18.4 mph - N/A   Mostly Cloudy
5:53 PM 10.0 °F -7.6 °F 3.0 °F 73% 30.44 in 10.0 mi NNW 17.3 mph - N/A   Scattered Clouds
6:53 PM 9.0 °F -4.2 °F 3.0 °F 77% 30.49 in 10.0 mi NNW 9.2 mph - N/A   Mostly Cloudy
7:28 PM 8.1 °F -8.4 °F 1.9 °F 76% 30.37 in 10.0 mi NW 13.8 mph - N/A   Scattered Clouds
7:53 PM 8.1 °F -8.4 °F 1.0 °F 73% 30.53 in 10.0 mi NNW 13.8 mph - N/A   Clear
8:53 PM 8.1 °F -7.7 °F -0.0 °F 70% 30.56 in 10.0 mi NNW 12.7 mph - N/A   Clear
9:53 PM 5.0 °F -8.1 °F -0.9 °F 76% 30.59 in 10.0 mi NW 8.1 mph - N/A   Clear
10:53 PM 3.0 °F -8.0 °F -2.0 °F 80% 30.61 in 10.0 mi WNW 5.8 mph - N/A   Clear
11:53 PM 1.9 °F -10.6 °F -2.9 °F 80% 30.62 in 10.0 mi WNW 6.9 mph - N/A   Clear